AirNav   Phillips 66 Aviation Fuel
 
 1041 users online  

NC18 Rat Landing Seaplane Base
Ahoskie, North Carolina, USA


FAA INFORMATION EFFECTIVE 07 DECEMBER 2017

Location

FAA Identifier: NC18
Lat/Long: 36-23-22.0000N / 076-54-41.0000W
36-23.366667N / 076-54.683333W
36.3894444 / -76.9113889
(estimated)
Elevation: 14 ft. / 4 m (estimated)
From city: 7 miles NE of AHOSKIE, NC
Time zone: UTC -5 (UTC -4 during Daylight Saving Time)
Zip code: 27986

Seaplane Base Operations

Seaplane Base use: Private use. Permission required prior to landing
Activation date: 12/2010
Control tower: no
ARTCC: WASHINGTON CENTER
FSS: RALEIGH FLIGHT SERVICE STATION
Attendance: UNATNDD
Segmented circle: no

Seaplane Base Communications

WX AWOS-3 at ASJ (14 nm SW): 119.075 (252-345-2967)
WX AWOS-3PT at FKN (19 nm N): 124.675 (757-562-8765)

Nearby radio navigation aids

VOR radial/distance  VOR name  Freq  Var
CVIr306/2.2COFIELD VORTAC114.6009W
FKNr175/20.1FRANKLIN VORTAC110.6009W
ECGr290/36.4ELIZABETH CITY VOR/DME112.5007W

 
NDB name  Hdg/Dist  Freq  Var  ID
EMPORIA129/28.326110WELQ . .-.. --.-
WOODVILLE294/30.625410WLLW .-.. .-.. .--
WAKEFIELD184/35.927411WAKQ .- -.- --.-

Seaplane Base Services

Fuel available: 100LL

Runway Information

Runway 12W/30W

Dimensions: 7300 x 500 ft. / 2225 x 152 m
Surface: water
RUNWAY 12W  RUNWAY 30W
Traffic pattern: leftleft

Seaplane Base Ownership and Management from official FAA records

Ownership: Privately-owned
Owner: HENRY JOYNER
327B TUSCARORA RD
WINTON, NC 27986
Phone 252-395-0822
Manager: HENRY JOYNER
327B TUSCARORA RD
WINTON, NC 27986
Phone 252-395-0822

Seaplane Base Operational Statistics

Aircraft based on the field: 1
Single engine airplanes: 1
    

Instrument Procedures

There are no published instrument procedures at NC18.

Some nearby airports with instrument procedures:

KASJ - Tri-County Airport (14 nm SW)
KFKN - Franklin Municipal-John Beverly Rose Airport (19 nm N)
KSFQ - Suffolk Executive Airport (23 nm NE)
KEDE - Northeastern Regional Airport (27 nm SE)
KPVG - Hampton Roads Executive Airport (32 nm NE)
 
Loc | Ops | Rwys | IFR | FBO | Links
Com | Nav | Svcs | Stats | Notes


 
Aerial photo
No photo
 
Sectional chart

 
Airport distance calculator
Flying to Rat Landing Seaplane Base? Find the distance to fly.

From to NC18

Sunrise and sunset
Times for 13-Dec-2017
 Local
(UTC-5)
 Zulu
(UTC)
Morning civil twilight06:4311:43
Sunrise07:1212:12
Sunset16:5221:52
Evening civil twilight17:2122:21

Current date and time
Zulu (UTC)  13-Dec-2017 23:42:09
Local (UTC-5)  13-Dec-2017 18:42:09
 
METAR
KASJ 
14nm SW 
132305Z AUTO 00000KT 10SM CLR 00/M10 A2986 RMK AO2 T00001096
KFKN 
19nm N 
132315Z AUTO 16004KT 10SM CLR M01/M10 A2984 RMK AO2 T10081104
KSFQ 
23nm NE 
132315Z AUTO 00000KT 10SM CLR M01/M09 A2985 RMK AO2 T10131090
TAF
KECG 
36nm E 
131720Z 1318/1418 27012G22KT P6SM SKC FM132300 22008KT P6SM SCT250 FM140300 22012G20KT P6SM BKN120 FM141200 26013G20KT P6SM SKC
KNGU 
44nm NE 
1315/1415 27022G30KT 9999 FEW040 520109 521009 QNH2987INS FM131900 25012G22KT 9999 FEW045 520109 521009 QNH2982INS FM140000 22010KT 9999 SCT100 SCT280 510109 511009 QNH2965INS TEMPO 1402/1404 SCT060 BKN100 FM140700 23015KT 9999 FEW050 SCT260 520109 521009 QNH2963INS T06/1320Z T01/1411Z FN20000
NOTAMs
Click for the latest NOTAMs
NOTAMs are issued by the DoD/FAA and will open in a separate window not controlled by AirNav.

 

 
 

Would you like to see your business listed on this page?

 If your business provides an interesting product or service to pilots, flight crews, aircraft, or users of the Rat Landing Seaplane Base, you should consider listing it here.  To start the listing process, click on the button below
 
Add a business
 

Other Pages about Rat Landing Seaplane Base

Update a link
 
Copyright © AirNav, LLC. All rights reserved. Privacy Policy  Contact